Location: Bartlow
(52.0833°N, 0.3167°E)
Time: 03:28:29
(UTC+00:00)

Resurs 1-4 Rocket - Pass Details

Date: 26 September 2023
Orbit: 800 x 812 km, 98.7° (Epoch: 29 November)

Event Time Altitude Azimuth Distance (km) Brightness Sun altitude
Rises 01:36:55 0° 17° (NNE) 3,323 6.3 -34.3°
Reaches altitude 10° 01:39:19 10° 22° (NNE) 2,388 5.3 -34.1°
Enters shadow 01:42:57 42° 46° (NE) 1,143 3.2 -33.8°
